Temp
28 27 27 24 24 24 24 23 21 20 20 17 16 16 16 15 16 15 15 15 15 15 14 14 14 13 13 14 14 14 15 15
28 28 27 27 24 24 23 23 22 21 20 18 15 15 15 15 15 15 15 15 15 14 15 14 14 14 15 15 15 15 14 14
28 28 27 27 25 24 24 23 23 21 21 20 17 15 15 15 15 15 15 15 14 14 14 14 14 14 14 14 14 14 14 13
28 28 28 27 24 23 23 23 22 21 20 18 16 15 15 15 15 14 14 14 14 14 14 14 15 15 15 14 14 13 12 11
28 28 28 27 26 24 23 23 22 20 19 18 18 16 15 15 15 14 14 14 13 14 14 14 15 15 15 14 14 12 12 11
28 28 28 27 26 25 22 22 21 20 19 19 17 15 15 14 14 14 14 14 13 14 14 14 14 14 14 13 12 12 11 10
28 28 28 27 26 25 22 21 20 19 18 19 17 16 15 14 13 13 13 13 13 13 14 13 14 14 13 12 12 12 11 9
28 28 27 27 26 24 22 20 19 19 17 18 17 16 15 14 13 13 13 13 13 13 13 13 13 13 12 12 11 10 9 9
28 28 28 27 26 24 23 20 19 18 19 19 16 16 14 14 13 13 13 13 13 13 13 12 12 12 11 11 10 9 9 8
28 28 28 27 26 25 23 21 19 19 18 18 16 15 15 14 13 13 13 13 12 12 12 12 11 11 11 10 10 9 7 7
28 28 27 27 26 24 23 22 20 19 18 17 16 15 15 14 13 13 12 12 11 11 12 11 11 11 10 10 9 8 7 6
27 27 27 26 25 24 22 20 18 19 17 17 16 15 15 13 13 13 12 12 11 11 11 10 11 10 10 9 8 7 7 6
25 27 26 24 23 23 22 19 18 18 17 17 16 14 13 12 12 12 11 11 10 10 10 10 10 10 9 8 7 6 6 5
25 25 24 24 22 21 21 18 17 17 16 15 14 13 12 11 12 11 11 11 10 10 10 9 9 9 8 7 7 7 6 5
24 23 23 22 21 21 20 17 16 16 15 14 13 12 10 11 11 11 10 10 10 9 8 8 8 7 7 7 6 6 5 5
23 22 22 21 20 19 18 16 16 15 14 13 12 11 10 10 10 11 9 9 8 9 8 7 7 7 7 5 5 5 5 5
23 22 22 21 20 19 18 16 15 14 13 12 11 10 10 10 10 9 9 7 8 7 7 6 6 6 4 4 5 4 4 4
22 22 20 20 19 19 18 17 15 13 12 10 9 9 10 9 8 7 6 7 6 6 5 5 5 4 4 4 4 4 4 3
22 22 22 20 19 17 16 15 14 12 11 10 9 9 9 8 7 6 6 5 5 5 4 4 4 3 3 3 3 3 3 3
Height
1478 1480 1484 1478 1484 1489 1492 1495 1499 1505 1509 1514 1519 1524 1528 1529 1531 1534 1537 1539 1541 1542 1545 1547 1547 1547 1548 1549 1551 1551 1551 1550
1473 1474 1477 1474 1476 1480 1484 1487 1492 1496 1502 1505 1511 1516 1520 1524 1526 1529 1533 1536 1537 1538 1541 1542 1543 1544 1545 1546 1547 1548 1546 1546
1467 1469 1471 1470 1469 1473 1477 1481 1485 1488 1494 1498 1505 1512 1515 1519 1522 1525 1529 1532 1533 1534 1537 1538 1539 1540 1542 1543 1543 1544 1544 1543
1460 1463 1464 1463 1463 1467 1472 1475 1479 1483 1489 1494 1500 1510 1515 1515 1517 1519 1522 1527 1529 1530 1532 1535 1535 1537 1538 1539 1540 1541 1541 1541
1453 1456 1457 1456 1453 1457 1462 1468 1472 1477 1482 1485 1489 1497 1503 1504 1507 1512 1516 1521 1524 1526 1528 1530 1531 1533 1535 1536 1537 1537 1537 1537
1443 1445 1448 1452 1449 1449 1453 1459 1464 1468 1473 1477 1482 1489 1498 1501 1504 1507 1510 1515 1519 1522 1524 1526 1528 1530 1531 1532 1532 1533 1533 1533
1433 1435 1439 1443 1444 1444 1446 1451 1455 1459 1465 1469 1474 1481 1489 1493 1498 1501 1503 1508 1512 1516 1520 1521 1523 1526 1528 1530 1530 1530 1529 1529
1422 1424 1427 1431 1436 1437 1440 1443 1446 1452 1457 1463 1468 1473 1482 1487 1491 1494 1497 1501 1505 1509 1513 1517 1519 1521 1524 1525 1526 1526 1525 1525
1412 1414 1418 1421 1424 1429 1432 1434 1437 1443 1451 1458 1463 1468 1477 1482 1487 1490 1493 1496 1499 1504 1507 1512 1515 1518 1520 1521 1522 1522 1522 1522
1403 1405 1408 1412 1415 1418 1424 1427 1432 1438 1444 1451 1457 1464 1469 1476 1481 1487 1491 1494 1496 1500 1503 1506 1510 1513 1515 1517 1517 1518 1518 1519
1394 1397 1400 1402 1405 1411 1416 1419 1421 1431 1437 1443 1448 1455 1460 1468 1475 1482 1486 1489 1492 1495 1498 1501 1504 1508 1511 1512 1513 1513 1514 1515
1387 1389 1393 1395 1399 1404 1410 1413 1418 1425 1431 1436 1440 1446 1452 1461 1468 1476 1479 1482 1485 1489 1491 1497 1498 1503 1505 1507 1509 1509 1510 1511
1381 1383 1385 1389 1392 1398 1403 1408 1415 1421 1426 1429 1435 1440 1444 1452 1461 1465 1472 1476 1480 1484 1488 1492 1493 1495 1499 1502 1503 1504 1505 1507
1375 1378 1379 1384 1389 1394 1399 1405 1411 1417 1422 1427 1432 1436 1442 1447 1453 1457 1464 1468 1476 1479 1482 1487 1490 1490 1493 1497 1498 1499 1502 1502
1375 1375 1377 1381 1386 1391 1396 1401 1406 1412 1417 1425 1427 1432 1436 1443 1450 1451 1458 1464 1469 1474 1480 1482 1483 1490 1489 1492 1493 1496 1498 1498
1379 1377 1376 1378 1383 1387 1392 1397 1402 1407 1413 1419 1423 1428 1432 1439 1446 1445 1454 1459 1463 1471 1475 1477 1482 1482 1487 1488 1490 1493 1493 1494
1374 1376 1374 1372 1375 1378 1383 1389 1395 1400 1406 1410 1417 1422 1427 1433 1438 1441 1449 1454 1461 1467 1470 1473 1477 1479 1482 1482 1487 1490 1490 1491
1369 1370 1371 1370 1369 1372 1373 1380 1387 1393 1396 1402 1409 1414 1420 1425 1433 1440 1445 1452 1458 1462 1468 1473 1473 1474 1474 1481 1484 1486 1487 1488
1363 1363 1363 1363 1363 1365 1368 1373 1379 1386 1390 1395 1402 1409 1415 1420 1427 1437 1447 1452 1456 1460 1467 1467 1467 1468 1474 1477 1480 1482 1484 1483
Wind_Speed
31 31 32 40 43 41 39 35 31 32 35 40 35 28 27 27 24 25 26 24 20 19 16 15 16 16 16 14 12 11 11 11
27 34 36 34 43 46 44 41 34 29 33 40 36 31 29 29 30 29 28 23 21 20 18 17 20 19 16 12 9 9 10 11
26 27 24 44 39 49 47 44 38 32 33 35 33 35 34 34 33 30 27 24 22 22 21 21 22 19 16 13 11 8 8 9
34 29 29 31 40 49 49 45 40 35 32 34 31 31 36 35 33 31 27 26 25 25 24 20 20 18 14 12 10 7 6 6
29 28 35 33 38 42 49 46 43 38 36 34 36 41 44 43 38 32 30 27 28 28 25 22 20 18 15 12 10 8 8 7
44 41 38 36 39 43 48 47 46 45 41 37 36 40 43 42 35 33 33 30 30 29 26 24 22 19 15 12 10 8 9 9
46 44 44 36 39 43 47 52 50 48 43 39 39 42 45 44 39 37 36 33 31 29 26 24 22 19 16 13 11 10 9 9
47 46 39 38 38 48 48 51 52 50 45 41 42 42 46 46 43 41 39 36 34 31 28 25 22 18 15 11 10 9 9 9
46 45 37 39 37 47 54 50 51 51 46 44 44 41 43 44 42 41 38 36 34 32 29 25 21 18 14 12 9 9 9 8
41 43 35 39 40 43 53 56 52 48 45 44 44 43 46 44 43 40 36 33 33 31 28 26 22 17 14 11 9 8 8 9
39 40 35 32 40 41 51 57 57 50 49 45 44 45 46 48 43 38 37 35 34 32 30 27 22 18 14 11 8 8 8 9
41 43 31 24 35 40 52 55 53 50 48 44 45 47 45 46 45 41 40 38 37 34 31 27 22 17 14 11 8 9 8 7
45 35 30 25 38 42 50 52 50 49 45 44 42 47 50 48 50 46 42 40 38 35 31 26 21 17 14 10 10 8 8 8
23 18 22 27 38 43 46 45 46 46 46 42 42 51 48 49 51 47 46 44 40 35 30 27 20 17 14 11 11 8 8 7
13 18 23 31 37 40 43 44 45 45 41 40 44 49 50 50 50 51 49 44 39 33 29 23 18 17 13 11 7 7 6 6
13 23 29 32 36 39 40 43 42 41 40 40 41 45 48 50 53 51 46 40 34 32 29 24 21 18 12 8 7 9 7 6
24 24 33 35 38 41 42 42 42 40 39 40 45 50 53 54 52 47 42 38 35 31 25 24 23 16 10 4 11 8 6 4
28 28 34 39 40 42 44 43 40 37 36 41 46 52 54 51 47 39 39 37 34 29 26 25 18 10 2 12 9 7 4 3
30 29 33 42 45 46 45 44 41 40 41 43 49 53 54 51 42 41 36 32 32 27 28 19 10 3 12 11 10 6 3 2
Wind_Direction
230 223 225 210 211 218 218 220 217 215 212 213 216 214 216 215 209 214 219 229 230 218 208 193 188 199 214 225 232 248 260 269
233 230 225 224 212 211 215 214 215 210 205 205 211 210 196 204 212 219 227 228 212 205 198 192 201 212 222 233 240 238 249 273
236 242 238 225 218 207 213 217 214 212 209 208 205 199 201 209 214 218 224 214 203 205 207 206 209 216 224 229 233 240 255 282
234 235 239 224 214 207 209 216 215 215 206 202 198 201 208 211 217 219 207 201 199 207 209 209 211 214 219 229 243 249 253 271
249 243 236 226 218 217 209 213 217 212 209 205 208 204 209 212 213 210 202 200 200 205 210 208 218 220 222 234 241 259 285 281
250 250 243 231 222 218 210 208 213 210 211 216 210 206 215 217 209 205 201 200 205 207 210 207 210 217 224 234 250 265 280 288
249 248 250 236 224 220 211 206 209 212 211 218 214 208 213 212 208 202 201 202 203 205 206 207 209 213 215 226 240 264 282 287
245 240 240 232 218 213 210 206 206 210 210 214 212 210 212 212 209 205 201 200 200 201 203 203 205 211 224 234 253 267 275 278
244 230 225 231 220 212 212 208 207 207 213 215 214 210 209 214 215 211 207 204 202 199 200 201 206 212 219 235 252 263 272 277
247 229 230 229 224 213 213 211 209 208 213 218 212 209 212 214 217 214 211 205 202 199 201 202 207 215 225 235 246 255 258 263
235 223 223 227 227 213 212 216 215 209 213 215 214 210 215 213 214 211 209 204 202 201 203 203 207 213 221 235 240 248 253 260
223 216 217 226 214 208 208 211 207 210 212 211 217 213 213 206 206 210 208 205 204 203 202 206 205 210 219 228 230 234 240 248
233 214 222 214 207 204 207 210 209 211 212 217 214 206 200 201 204 204 202 203 203 202 204 204 202 204 215 214 224 224 236 246
192 200 203 205 199 198 206 210 207 209 209 209 209 202 198 199 200 199 200 201 199 201 202 201 203 201 204 204 214 218 229 248
195 189 202 202 198 202 206 207 207 206 205 207 203 201 199 199 199 196 196 198 201 202 201 196 195 205 195 204 202 225 235 263
239 197 200 201 199 204 206 207 205 208 207 207 209 207 203 200 199 197 197 200 203 200 194 192 192 196 184 187 221 225 248 282
253 214 207 210 207 207 208 209 209 210 213 211 209 202 200 197 196 200 202 202 197 193 190 188 192 177 187 218 217 232 254 271
251 234 211 214 215 216 213 216 213 209 207 202 201 197 195 198 198 202 196 190 190 187 188 188 177 192 254 207 211 224 226 250
253 255 247 222 218 216 213 210 210 209 204 202 201 200 201 197 200 192 189 190 190 186 188 175 197 182 202 198 202 194 211 329